Location: *
(45.9500°N, 9.0833°E)
Time: 02:07:12
(UTC+00:00)

Vanguard 2 Rocket - All Passes

Search period start: 13 June 2021 00:00
Search period end: 23 June 2021 00:00
Orbit: 554 x 3325 km, 32.9° (Epoch: 12 June)

Date Brightness Start Highest point End Pass type
(mag) Time Alt. Az. Time Alt. Az. Time Alt. Az.
13 Jun - 00:51:22 10° WSW 00:58:43 25° SSW 01:03:41 10° SSE visible
13 Jun - 17:08:59 10° SSE 17:15:59 13° SE 17:22:15 10° ESE daylight
13 Jun - 19:16:42 10° SSW 19:31:00 30° SSE 19:41:06 10° ESE daylight
13 Jun - 21:31:56 10° WSW 21:45:47 40° S 21:54:14 10° ESE visible
13 Jun - 23:49:19 10° WSW 23:59:17 33° SSW 00:05:29 10° SE visible
14 Jun - 02:08:36 10° WSW 02:10:58 12° SW 02:13:02 10° SSW visible
14 Jun - 18:16:14 10° SSW 18:30:06 26° SSE 18:40:45 10° ESE daylight
14 Jun - 20:30:00 10° SW 20:45:15 40° S 20:55:00 10° ESE visible
14 Jun - 22:47:08 10° WSW 22:59:29 39° S 23:06:55 10° SE visible
15 Jun - 01:05:21 10° WSW 01:11:55 20° SW 01:16:37 10° SSE visible
15 Jun - 17:16:44 10° S 17:29:08 21° SE 17:39:31 10° ESE daylight
15 Jun - 19:28:23 10° SW 19:44:26 37° SSE 19:55:24 10° ESE visible
15 Jun - 21:44:52 10° WSW 21:59:19 43° S 22:08:03 10° ESE visible
16 Jun - 00:02:55 10° W 00:12:36 29° SSW 00:18:48 10° SSE visible
16 Jun - 16:18:55 10° SSE 16:28:12 15° SE 16:36:41 10° ESE daylight
16 Jun - 18:27:18 10° SSW 18:43:23 33° SSE 18:55:21 10° E daylight
16 Jun - 20:42:39 10° WSW 20:58:45 45° S 21:08:53 10° ESE visible
16 Jun - 23:00:30 10° WSW 23:12:53 38° SSW 23:20:27 10° SE visible
17 Jun - 01:19:54 10° WSW 01:24:55 15° SW 01:28:51 10° S visible
17 Jun - 17:26:57 10° SSW 17:42:15 29° SSE 17:54:42 10° E daylight
17 Jun - 19:40:41 10° SW 19:57:51 44° S 20:09:24 10° ESE visible
17 Jun - 21:58:02 10° WSW 22:12:46 44° S 22:21:43 10° ESE visible
18 Jun - 00:16:46 10° W 00:25:43 24° SW 00:31:46 10° SSE visible
18 Jun - 16:27:36 10° S 16:41:08 23° SE 16:53:10 10° E daylight
18 Jun - 18:39:10 10° SW 18:56:41 41° SSE 19:09:31 10° E daylight
18 Jun - 20:55:36 10° WSW 21:12:13 47° S 21:22:38 10° ESE visible
18 Jun - 23:14:02 10° W 23:26:09 34° SSW 23:33:44 10° SE visible
19 Jun - 01:37:12 10° SW 01:37:43 10° SW 01:38:14 10° SW visible
19 Jun - 15:29:48 10° SSE 15:40:11 17° SE 15:50:07 10° ESE daylight
19 Jun - 17:38:17 10° SSW 17:55:22 36° SSE 18:09:08 10° E daylight
19 Jun - 19:53:24 10° WSW 20:11:15 48° S 20:23:13 10° ESE visible
19 Jun - 22:11:22 10° W 22:26:07 42° SSW 22:35:11 10° SE visible
20 Jun - 00:31:04 10° W 00:38:37 19° SW 00:44:08 10° S visible
20 Jun - 14:37:15 10° SE 14:39:30 10° SE 14:41:44 10° ESE daylight
20 Jun - 16:38:10 10° SSW 16:54:03 31° SSE 17:08:07 10° E daylight
20 Jun - 18:51:35 10° SW 19:09:58 47° SSE 19:23:25 10° ESE daylight
20 Jun - 21:08:47 10° WSW 21:25:35 47° S 21:36:14 10° ESE visible
20 Jun - 23:27:48 10° W 23:39:11 28° SW 23:46:40 10° SSE visible
21 Jun - 15:39:05 10° S 15:52:54 24° SE 16:06:11 10° E daylight
21 Jun - 17:50:19 10° SW 18:08:30 43° SSE 18:23:11 10° E daylight
21 Jun - 20:06:24 10° WSW 20:24:38 50° S 20:36:54 10° ESE visible
21 Jun - 22:24:53 10° W 22:39:16 37° SSW 22:48:26 10° SE visible
22 Jun - 00:46:26 10° WSW 00:51:19 13° SW 00:55:20 10° SSW visible
22 Jun - 14:41:30 10° SSE 14:52:02 17° SE 15:02:44 10° ESE daylight
22 Jun - 16:49:45 10° SSW 17:07:00 38° SSE 17:22:24 10° E daylight
22 Jun - 19:04:23 10° WSW 19:23:18 51° S 19:37:11 10° ESE daylight
22 Jun - 21:22:08 10° W 21:38:51 45° SSW 21:49:40 10° SE visible
22 Jun - 23:41:57 10° W 23:51:59 22° SW 23:59:05 10° S visible
